GFSMW_700_spd_000.txt.gz
Wind_Speed
20 20 20 20 19 18 18 20 19 15 15 15 14 14 13 14 15 15 14 15 15 15 16 16 15 16 18 19 19 16 16 16 15 14 13 11 9 7 6 7 6 6 9
29 25 24 23 22 20 19 19 18 18 16 17 15 15 15 16 14 14 13 13 12 11 10 9 10 10 12 12 13 12 12 12 13 13 11 6 15 9 9 8 6 5 7
32 29 28 26 24 23 21 20 19 18 19 17 18 17 16 14 11 11 10 9 8 6 4 2 1 3 6 9 10 10 9 10 11 10 9 8 4 10 12 9 9 9 10
33 34 32 30 28 23 23 21 22 22 21 19 19 18 16 16 14 13 13 12 10 8 6 5 5 7 9 11 12 11 9 9 11 9 9 10 12 6 4 10 14 13 13
29 33 35 33 29 26 25 22 24 22 21 20 21 21 20 19 18 15 12 9 8 6 6 8 9 11 11 12 13 12 10 10 10 10 10 10 9 9 9 8 10 17 20
25 25 26 28 27 26 26 25 25 22 20 21 21 23 23 19 18 15 10 7 4 2 5 7 10 12 14 14 14 12 11 10 9 9 9 11 11 9 10 11 13 16 18
28 25 25 27 29 29 27 26 25 21 21 21 22 22 20 20 18 14 12 9 4 3 4 6 9 11 14 16 15 13 12 11 11 11 11 12 13 13 15 15 14 12 14
21 29 28 27 28 28 28 27 24 22 20 21 22 22 21 21 19 17 15 11 8 8 8 7 9 12 14 16 18 15 13 13 13 12 11 11 14 14 14 15 17 18 15
20 26 32 31 31 30 28 24 24 23 22 22 22 21 22 23 24 21 17 14 11 10 9 13 14 15 15 16 19 18 16 15 14 14 12 13 14 15 15 16 18 20 22
22 22 25 30 33 32 30 27 25 25 27 27 25 24 23 27 28 26 23 19 15 14 12 13 17 22 22 18 21 20 18 16 16 16 14 13 14 14 15 17 21 23 22
18 23 23 26 35 34 31 27 26 24 25 28 26 28 27 30 32 32 26 24 21 25 16 17 27 25 25 22 21 22 19 18 16 15 14 14 15 16 17 17 22 24 25
18 18 23 30 30 34 37 32 28 28 26 21 21 23 28 34 36 38 32 28 28 31 23 27 25 22 26 28 23 23 22 18 16 15 13 15 18 16 17 21 22 23 26
23 23 26 34 27 31 33 31 31 29 27 24 25 24 26 29 37 41 42 35 42 40 44 46 45 40 32 29 24 23 23 20 17 14 15 16 20 17 19 22 23 25 30
18 20 29 32 30 32 31 31 32 32 29 28 27 27 29 34 35 36 42 51 48 55 55 44 41 36 38 30 23 25 24 23 20 18 19 19 21 21 24 26 27 31 33
23 22 31 33 26 26 30 33 33 32 27 28 29 29 33 34 33 35 39 45 52 47 46 39 36 37 37 33 26 27 27 25 24 23 22 23 26 28 30 32 30 32 33
26 22 33 31 23 20 22 25 25 27 27 30 31 31 29 26 26 29 36 41 39 36 34 27 34 35 36 37 31 29 29 28 27 28 26 29 29 30 30 32 32 33 36
23 24 30 28 25 24 26 28 28 29 32 32 31 28 27 28 29 29 29 28 28 29 31 29 34 32 32 35 32 30 32 33 33 32 33 32 31 32 30 30 32 35 36
30 29 31 32 28 30 30 31 34 34 33 33 32 29 29 24 22 20 18 20 25 26 23 26 29 29 31 35 34 36 35 35 33 33 35 38 37 37 27 29 35 37 36
32 32 32 32 34 34 32 32 32 34 34 35 35 31 21 12 14 14 18 17 24 27 23 25 24 26 30 35 33 35 34 36 33 36 44 42 42 39 28 31 36 37 37
33 31 31 38 36 31 33 31 35 34 36 36 33 25 17 14 17 19 22 21 22 23 20 22 23 24 27 31 28 28 31 34 37 37 48 40 34 32 29 34 37 38 36
36 35 33 31 33 34 33 34 33 33 31 28 26 22 23 25 30 31 36 21 18 16 17 19 22 24 26 24 26 27 29 35 41 44 40 35 29 34 34 36 37 36 35
31 33 34 29 31 34 32 31 30 27 24 21 21 26 29 29 31 27 29 21 13 13 13 16 19 21 22 26 27 28 32 37 37 35 35 33 34 34 33 35 35 35 35
30 29 28 31 34 34 33 29 24 21 21 25 31 31 28 21 19 21 20 18 14 14 15 17 21 21 26 27 28 32 34 35 35 31 31 33 33 32 35 33 33 34 34
32 32 31 31 31 32 31 28 22 24 28 32 28 22 20 17 18 18 18 16 14 17 15 20 25 25 27 29 28 29 30 32 29 30 30 31 33 33 32 33 32 32 27
25 23 23 23 24 26 25 25 27 31 30 27 25 21 20 19 18 19 19 19 18 15 15 16 21 27 24 22 22 21 23 26 28 27 29 31 30 29 30 29 29 21 18
19 16 18 20 22 24 26 29 29 24 25 23 20 21 21 19 20 18 15 16 19 18 18 15 18 19 23 21 19 20 23 23 23 26 30 31 30 28 27 25 23 23 25

GFSMW_700_spd_006.txt.gz
Wind_Speed
22 22 21 22 22 21 20 19 19 17 17 15 15 16 16 13 15 17 19 14 18 14 12 12 14 13 12 15 15 17 18 17 13 8 8 6 13 13 10 5 8 7 9
26 26 27 25 24 22 19 19 18 19 20 19 16 15 16 18 19 16 18 12 13 15 12 10 9 8 8 8 9 12 13 13 11 4 3 2 7 10 15 13 5 7 8
29 32 32 30 27 26 22 19 17 17 17 20 18 18 18 16 12 11 18 11 9 7 5 4 4 4 6 9 9 9 10 11 9 4 0 4 6 5 9 14 8 9 9
30 32 35 34 34 30 25 23 21 20 18 20 20 20 19 17 17 13 13 7 6 5 5 4 2 3 6 8 9 11 10 10 11 8 1 6 10 11 5 11 10 19 2
29 32 36 37 28 33 29 25 23 22 21 19 21 20 19 18 17 11 10 7 8 8 6 3 3 3 4 7 10 12 13 11 10 9 9 4 6 11 15 7 9 12 22
30 32 34 35 27 27 30 26 25 23 21 21 21 22 18 18 14 10 11 12 11 8 7 8 5 6 7 9 11 12 13 14 13 11 8 8 8 6 11 15 19 20 12
32 34 35 27 21 18 22 23 25 24 22 22 20 22 20 18 16 16 14 14 12 11 13 11 9 8 10 13 18 19 18 16 14 14 11 10 8 8 11 13 13 12 9
30 34 29 26 22 18 19 20 18 21 22 22 20 22 20 21 18 15 15 15 15 17 10 12 10 11 12 19 19 21 29 23 18 16 16 12 10 10 10 11 13 10 9
31 28 31 27 29 24 23 15 16 15 22 23 21 21 18 21 17 17 20 17 19 18 12 14 14 16 19 19 19 22 29 29 23 20 19 19 15 11 9 11 13 10 8
30 24 26 28 29 28 23 21 21 18 22 24 24 21 20 17 16 19 21 17 19 21 15 17 18 23 24 28 26 29 31 29 25 21 21 17 17 12 8 11 16 9 15
24 22 24 29 31 31 25 24 22 24 25 28 28 24 21 16 16 18 17 18 22 17 23 23 24 27 28 30 30 34 37 41 29 27 23 19 15 12 10 12 10 11 13
32 29 27 29 26 27 29 27 26 26 26 27 28 25 22 21 21 20 16 18 23 22 27 29 31 33 34 36 36 37 39 41 36 34 31 20 17 15 14 12 10 12 14
26 28 27 30 24 23 29 30 27 28 29 26 24 23 27 27 25 21 20 20 23 25 29 33 35 39 41 41 43 44 43 41 37 36 31 23 20 20 19 15 15 15 17
21 27 22 29 30 22 27 32 28 30 31 28 25 26 26 25 24 21 19 23 25 27 31 34 38 40 42 43 44 46 44 39 35 36 32 31 26 24 23 20 18 18 21
21 21 24 25 32 34 24 33 31 29 33 29 29 27 26 24 25 24 20 24 27 26 30 34 35 35 38 41 45 48 44 41 37 35 36 32 30 26 25 26 20 26 29
31 19 23 25 28 35 28 28 33 32 32 32 31 27 27 28 28 26 26 27 29 29 31 33 33 29 26 38 42 46 43 42 37 33 34 31 33 28 28 24 27 29 31
33 27 18 23 28 28 26 26 34 36 34 33 31 28 28 30 31 28 28 28 30 31 33 32 27 21 27 36 42 48 43 40 38 35 31 32 33 30 27 24 29 33 37
35 39 36 25 28 32 30 33 40 41 36 35 36 32 29 33 31 27 27 30 29 29 29 26 22 25 21 36 42 44 38 41 37 34 29 32 29 30 28 28 29 33 35
32 39 41 40 35 36 32 31 39 36 36 35 36 32 33 38 30 28 29 28 28 26 22 21 24 24 29 30 37 34 35 36 33 32 32 30 28 28 26 26 28 33 30
43 28 32 35 41 39 35 34 41 34 33 33 32 37 36 33 31 30 28 26 23 19 19 22 24 27 29 29 29 27 27 26 27 27 26 22 22 20 22 28 30 29 29
49 43 30 28 35 38 31 31 42 36 33 36 36 37 37 34 31 30 26 21 18 19 22 23 25 26 24 24 23 23 23 24 23 24 22 18 20 24 29 30 27 29 30
31 33 37 34 36 30 31 39 46 41 39 40 38 40 34 32 28 20 17 16 19 23 21 23 23 22 19 20 21 21 20 19 17 17 21 25 25 25 26 27 30 30 31
26 27 35 36 39 37 34 37 45 43 41 38 37 35 29 24 25 27 17 20 22 21 20 19 20 19 19 18 17 20 21 17 20 23 22 24 26 26 25 28 29 30 33
25 28 35 39 39 42 41 41 38 40 38 35 31 27 26 22 19 18 16 16 17 18 18 19 18 19 20 15 17 20 19 22 24 23 24 23 24 26 28 28 29 30 28
26 30 33 32 35 41 42 36 36 35 32 29 26 21 17 13 14 15 15 17 16 16 18 17 18 19 18 17 18 21 23 18 18 22 23 23 23 25 26 27 28 30 30
27 27 30 30 31 30 31 30 30 23 21 18 16 12 11 12 14 15 16 17 17 18 17 18 17 15 18 19 19 19 20 21 21 21 21 22 23 24 21 27 28 29 30

GFSMW_700_spd_009.txt.gz
Wind_Speed
20 25 23 23 25 22 19 17 17 14 13 15 13 12 11 11 11 10 11 9 11 12 10 10 11 11 9 8 9 12 12 12 9 7 7 3 5 6 7 7 4 1 5
21 24 25 25 25 22 19 18 19 19 15 14 14 14 12 13 14 15 15 12 10 12 12 11 7 5 4 6 9 11 13 13 10 7 1 2 3 6 9 5 5 4 1
26 27 29 28 27 26 22 19 17 19 17 14 15 16 17 15 13 16 11 9 10 9 7 4 1 2 5 8 9 11 13 14 14 9 5 1 2 3 12 10 10 4 4
27 29 28 30 33 30 25 23 20 20 18 18 16 16 17 16 13 11 6 6 9 7 5 4 2 3 6 8 8 10 13 13 14 12 8 5 6 8 11 10 13 12 4
27 23 22 20 22 22 26 27 23 23 21 21 19 17 18 16 14 13 10 9 9 7 5 3 2 3 4 8 11 15 16 18 16 14 13 8 6 10 14 16 15 17 11
30 29 19 15 18 17 19 24 29 26 24 22 21 19 17 15 14 13 11 14 11 9 7 5 2 2 4 9 11 14 19 25 22 16 13 14 11 9 10 13 15 17 20
30 32 33 20 15 14 11 14 24 27 25 23 21 19 15 16 12 12 14 14 10 9 8 6 5 5 4 5 11 10 20 25 21 14 13 12 12 13 12 10 11 14 15
33 38 32 20 16 18 17 14 13 21 24 23 20 19 15 15 13 14 14 12 11 10 7 7 8 9 7 9 13 18 21 28 28 17 18 14 11 12 12 12 9 8 9
31 46 44 26 20 20 22 19 14 14 20 22 19 19 16 15 15 17 16 13 11 9 10 11 13 13 13 14 15 19 22 25 29 26 21 21 19 16 15 14 9 9 9
28 48 50 31 16 18 18 21 18 16 17 20 18 19 17 17 17 20 19 14 11 10 11 14 17 16 16 18 19 24 27 27 28 30 28 27 25 21 16 15 11 11 10
27 42 48 27 16 18 20 21 23 20 21 20 18 21 21 21 21 20 18 13 11 11 10 14 20 21 22 24 24 25 31 32 32 29 28 27 28 22 18 16 13 14 11
29 36 44 29 18 20 22 22 25 25 22 22 20 23 25 24 22 19 15 14 11 12 14 15 21 24 26 29 29 30 34 33 33 32 29 27 27 22 19 19 14 15 15
27 34 38 30 17 21 21 24 27 27 23 24 22 24 28 27 23 20 17 15 14 16 18 19 20 25 29 31 32 34 36 36 33 31 29 29 29 24 21 21 18 18 19
30 30 36 28 18 21 18 23 26 27 25 25 25 24 25 25 24 21 19 16 17 19 22 25 27 30 32 34 35 35 38 37 36 33 32 30 27 23 23 22 23 20 21
19 29 29 28 27 23 20 20 22 22 27 26 26 25 23 23 24 24 23 22 22 20 23 27 29 31 32 33 32 33 35 37 37 34 34 32 31 24 23 24 24 24 22
25 31 31 31 26 26 24 19 22 21 23 28 26 25 25 26 27 26 23 22 22 23 26 28 30 30 31 31 29 31 33 39 35 32 35 35 34 25 24 26 27 24 22
29 27 29 28 26 29 21 20 16 17 23 26 28 27 28 28 27 27 26 26 24 26 29 31 32 31 29 28 27 29 33 41 38 33 35 31 25 25 25 28 24 23 23
39 33 33 26 25 24 26 24 23 25 21 28 30 29 31 31 30 30 30 30 30 30 30 31 32 29 24 22 25 30 37 42 36 32 33 30 25 27 25 26 26 25 21
27 29 27 34 32 33 24 25 26 26 27 29 33 30 31 32 32 33 30 30 30 28 27 28 26 24 23 22 28 33 39 38 28 29 28 27 22 25 21 21 18 19 23
27 39 29 33 37 46 41 37 34 31 30 30 35 31 32 30 33 36 30 26 27 29 30 26 22 22 22 25 30 33 31 25 21 23 25 24 24 18 18 19 23 25 26
31 34 42 45 33 33 39 35 38 33 32 33 38 37 37 35 37 38 31 30 29 25 23 22 22 24 24 28 28 25 22 19 19 21 20 18 18 18 18 21 26 26 28
28 30 41 39 42 36 32 36 35 34 32 34 38 39 38 40 40 36 31 29 19 22 29 25 25 25 25 24 23 20 17 18 17 19 18 14 17 20 21 24 26 26 28
31 29 25 29 38 45 33 32 31 25 32 39 42 42 42 39 38 35 32 27 24 23 24 26 24 25 24 24 20 19 17 18 19 18 17 18 20 21 23 24 26 28 29
28 33 35 25 31 40 41 38 35 32 31 40 46 49 43 38 36 30 29 25 20 20 23 23 23 23 21 19 18 18 17 18 18 19 21 19 21 24 25 26 26 26 26
34 37 37 35 28 28 30 34 36 34 34 36 40 40 37 31 28 27 22 18 18 21 22 19 19 21 17 18 19 18 18 19 19 18 19 21 22 23 24 24 25 23 24
26 41 36 37 35 27 27 32 35 33 33 32 30 30 29 26 22 19 17 18 19 21 20 17 18 18 17 16 16 15 17 19 19 19 20 19 20 22 22 21 21 24 24

GFSMW_700_spd_015.txt.gz
Wind_Speed
11 16 18 21 23 23 24 22 21 19 18 15 14 11 7 6 5 5 5 7 10 10 9 9 5 3 4 6 8 10 12 12 13 12 8 5 3 2 3 3 2 1 2
11 17 21 21 22 22 23 23 20 20 17 14 13 12 10 9 9 10 10 10 12 13 12 8 3 6 6 8 9 10 12 12 11 10 9 8 8 9 4 6 6 4 4
16 7 21 25 24 24 24 21 19 19 18 16 16 14 15 14 11 8 9 10 13 14 8 4 9 9 9 8 9 11 14 11 9 7 7 8 9 10 9 6 7 6 6
23 20 18 16 25 26 26 24 22 22 20 19 18 17 16 15 11 9 10 10 13 14 7 11 12 11 9 8 11 14 20 16 9 6 8 9 9 9 9 10 11 10 9
29 22 17 20 12 23 25 25 24 23 22 20 19 19 18 15 16 16 14 11 8 11 13 15 15 12 9 8 8 9 15 23 12 11 10 10 10 10 10 10 9 9 10
30 25 19 23 21 16 19 27 26 25 24 23 21 20 20 18 19 18 15 13 10 12 16 17 16 13 10 7 5 3 9 17 21 17 12 11 11 11 12 12 12 12 10
26 27 22 25 29 24 20 21 26 30 29 26 25 22 21 20 21 19 16 15 13 15 17 19 17 13 10 7 3 0 6 10 15 18 18 17 14 12 12 11 12 13 13
31 27 30 25 23 23 22 21 23 24 25 26 29 26 24 23 22 21 18 16 16 19 21 20 18 14 12 10 7 4 5 7 12 16 17 17 17 14 16 12 12 11 13
34 31 23 28 26 26 25 22 19 21 24 24 23 27 28 26 24 22 19 17 20 24 27 23 19 16 14 12 12 11 10 11 13 15 17 17 16 17 13 12 10 12 10
35 34 34 27 28 26 26 23 18 18 20 20 22 23 29 26 25 25 23 20 24 27 29 25 21 17 16 14 14 13 14 14 16 18 20 20 17 14 17 12 10 9 10
35 38 39 40 28 30 30 28 24 22 22 24 22 23 26 28 27 27 23 22 27 31 29 24 22 19 16 16 15 16 17 16 19 21 23 22 20 17 17 11 11 10 11
34 38 42 37 31 30 29 30 25 26 25 26 24 25 23 27 29 28 24 25 29 34 29 27 25 22 19 19 19 19 20 20 21 22 24 25 23 20 19 15 14 11 13
19 32 45 44 33 27 27 30 27 27 27 28 28 28 27 26 28 28 25 26 31 33 31 28 26 24 24 21 20 20 21 23 23 25 26 25 26 22 21 19 15 14 14
11 23 34 44 37 33 30 34 28 28 30 30 33 32 31 27 23 28 27 26 32 33 32 30 26 23 21 20 20 21 21 24 26 26 26 25 26 21 21 22 19 18 18
20 21 35 36 37 40 40 37 32 30 32 33 37 37 33 30 26 30 30 29 32 32 32 30 28 24 23 22 21 22 24 26 26 26 27 26 24 22 21 23 21 19 20
28 21 27 31 34 39 38 41 35 31 34 34 37 36 35 35 32 31 34 32 32 33 33 31 28 26 25 23 23 23 25 28 26 28 28 26 26 21 22 23 22 20 19
25 35 36 35 32 33 33 39 37 34 33 33 36 34 34 36 37 33 35 38 37 37 36 33 31 28 27 24 23 26 31 34 26 31 30 26 25 20 23 22 22 21 20
28 33 41 40 30 25 36 34 39 34 29 32 33 33 31 35 38 40 36 37 40 40 39 36 33 30 29 25 20 21 22 20 24 28 28 27 27 19 21 24 21 22 22
28 27 30 36 33 31 32 36 41 38 31 32 34 34 31 32 36 39 38 39 41 42 40 38 35 32 28 26 21 14 21 28 22 28 28 29 26 22 19 21 23 23 23
31 28 29 34 34 32 32 37 37 38 38 32 31 29 31 33 36 36 42 39 41 41 40 38 36 34 31 33 28 27 26 27 28 29 32 28 21 18 19 21 24 22 24
29 29 30 26 27 33 38 39 40 43 35 34 34 34 32 33 35 38 38 42 43 43 43 41 38 35 31 28 27 35 30 30 32 30 26 21 17 16 17 18 19 20 22
30 32 31 32 31 30 32 36 44 40 40 37 41 38 37 37 34 39 39 41 40 45 44 43 40 33 31 30 27 28 30 34 29 25 19 18 16 15 16 17 18 20 22
29 30 30 32 32 32 36 36 33 32 39 41 40 39 45 43 39 36 37 43 45 38 38 43 39 35 32 30 22 29 33 28 25 20 17 16 16 16 16 19 20 20 23
25 26 29 33 36 37 37 38 36 39 45 47 48 44 53 47 53 46 43 44 47 46 44 41 37 36 31 23 22 31 27 24 21 17 17 17 17 17 18 19 19 21 22
21 23 24 24 25 31 37 44 47 51 54 54 51 56 54 53 54 51 48 45 48 47 45 42 35 27 21 20 32 29 24 22 19 17 17 17 17 17 18 18 18 20 21
15 15 14 19 24 35 43 47 50 53 54 57 55 57 61 59 54 49 45 45 40 38 44 41 24 22 18 22 26 24 21 19 19 17 17 17 17 17 17 16 19 21 21

GFSMW_700_spd_021.txt.gz
Wind_Speed
15 17 23 26 28 28 28 27 25 24 23 21 19 17 15 15 13 11 11 11 10 9 8 6 2 3 3 3 2 5 8 7 7 9 10 10 8 6 7 6 3 2 3
20 21 23 24 28 29 28 27 24 24 21 19 18 16 14 13 13 13 13 11 11 10 11 8 6 7 6 4 2 5 7 4 5 8 9 11 11 10 8 7 7 5 2
20 15 24 23 23 30 29 27 23 22 21 21 21 20 18 16 15 13 12 10 11 12 12 10 8 11 9 7 4 6 4 4 7 9 9 9 9 9 9 8 8 8 6
27 17 17 23 23 25 27 26 25 24 23 22 22 18 15 13 10 9 10 12 14 14 14 12 13 15 12 9 8 8 9 9 8 9 9 9 9 7 6 6 5 5 6
30 28 20 12 16 25 27 26 25 25 22 23 22 20 18 15 15 15 15 15 14 13 16 16 19 18 16 12 10 13 11 11 12 12 11 11 10 9 8 7 7 6 6
30 32 26 23 19 24 29 29 30 29 26 24 24 23 21 20 18 17 16 15 12 11 18 22 24 22 19 15 11 11 12 12 12 12 12 13 13 14 11 8 6 7 7
25 30 31 27 27 25 24 31 31 31 30 29 27 24 22 20 19 18 17 15 13 10 18 25 26 23 21 19 15 11 7 6 7 8 9 11 12 13 13 13 12 9 7
22 24 28 26 26 24 26 25 28 34 32 32 29 26 24 22 20 20 19 16 14 14 18 25 27 25 24 21 18 14 9 4 1 3 5 8 11 11 10 10 8 10 12
20 19 16 25 29 29 27 28 27 23 27 32 30 30 29 26 23 21 20 18 16 18 23 27 29 28 26 23 19 16 13 10 7 7 7 9 10 11 12 11 10 10 11
19 16 17 20 23 25 26 26 26 28 26 23 22 27 31 29 27 26 24 21 18 19 25 30 32 32 30 26 22 18 16 13 12 10 11 13 14 13 13 13 12 12 13
21 15 16 18 21 24 27 27 27 26 26 28 26 24 21 20 22 25 25 25 22 22 25 32 34 34 32 29 24 21 18 16 14 12 14 15 16 16 15 14 13 14 13
22 17 13 14 19 22 24 29 31 32 30 27 26 25 24 24 25 25 24 26 26 25 26 32 36 37 35 32 27 24 21 18 17 16 16 17 21 18 18 17 16 16 15
34 30 28 24 19 19 24 33 32 34 33 32 29 29 29 29 26 25 25 26 27 27 30 33 37 39 37 34 30 26 24 20 20 20 17 12 25 16 17 19 19 19 18
22 25 27 27 25 24 24 27 35 35 35 36 33 32 30 30 29 25 25 26 28 30 32 34 38 40 38 36 34 30 26 24 22 21 22 23 24 19 17 20 21 23 22
28 26 29 32 32 29 26 25 26 31 35 36 36 35 32 31 32 31 28 26 29 29 31 35 39 41 41 39 36 32 28 26 25 24 27 26 28 27 20 21 23 25 26
22 19 19 22 23 30 25 26 27 32 35 32 29 29 34 34 34 35 33 30 30 29 33 37 39 42 42 41 38 34 32 30 31 27 29 29 31 31 28 24 25 26 28
25 24 24 22 25 25 24 30 31 32 32 30 27 29 27 28 34 35 35 35 33 32 33 38 39 41 43 42 39 37 36 35 34 31 30 30 31 34 32 29 27 28 28
18 19 17 23 26 24 25 29 32 36 33 32 35 32 29 27 29 36 36 36 35 35 34 37 39 40 42 45 43 42 41 40 38 35 32 31 31 30 25 26 27 27 27
21 25 22 23 27 26 27 33 31 30 31 33 35 35 33 32 31 32 36 38 38 38 39 38 41 40 41 41 44 45 45 45 43 39 35 35 32 32 26 25 25 26 27
22 26 24 19 30 29 31 33 35 33 31 32 30 30 31 32 34 31 32 35 39 39 39 42 42 44 43 45 47 48 50 49 46 43 39 37 31 32 30 25 23 26 27
22 26 25 26 26 30 27 34 35 33 31 30 31 31 33 35 37 34 32 31 32 37 41 43 46 46 47 48 50 51 53 52 49 45 42 39 33 35 30 25 23 23 28
23 27 26 29 26 27 30 27 35 40 40 40 36 36 35 36 41 38 35 35 37 38 36 39 42 46 49 50 54 54 54 54 51 47 45 41 37 31 29 28 22 24 26
29 24 27 26 26 25 25 27 26 28 30 35 39 40 36 36 41 42 40 39 39 44 39 45 46 43 43 50 53 52 53 55 54 52 47 40 35 28 24 33 26 23 25
30 26 31 30 29 27 26 29 29 28 28 28 30 33 37 37 38 41 44 45 46 49 45 47 48 45 43 50 48 54 54 55 55 49 45 40 39 27 36 40 26 25 27
33 28 25 28 31 30 31 30 29 28 28 29 30 32 34 36 38 42 44 48 47 50 51 52 51 57 63 48 50 56 57 57 51 47 45 45 25 20 33 29 25 27 27
30 29 27 27 28 28 29 29 30 30 29 29 31 33 35 37 41 48 52 51 52 53 54 53 57 56 55 52 56 48 48 48 46 28 23 43 38 32 30 26 27 29 26

GFSMW_700_spd_024.txt.gz
Wind_Speed
12 19 23 26 27 28 28 28 27 26 25 23 20 18 17 15 14 12 13 12 11 10 9 6 5 2 2 3 3 4 6 5 6 9 10 11 10 9 8 6 3 1 3
20 20 23 28 29 29 29 29 28 27 25 23 20 19 17 16 14 14 14 13 13 11 9 8 6 5 5 3 2 5 3 3 6 8 7 5 8 9 8 7 4 3 3
22 19 23 26 29 29 28 29 28 27 25 24 23 21 19 18 17 16 14 12 11 10 10 10 9 9 8 3 3 3 5 6 6 7 8 5 3 1 5 5 4 3 3
23 24 21 26 24 23 28 29 28 28 26 25 24 22 18 16 15 13 12 13 13 12 13 13 13 13 10 6 2 7 8 7 7 7 9 9 7 4 4 5 4 4 4
25 26 21 14 21 23 28 30 30 30 28 25 24 22 20 18 17 16 15 15 14 13 13 15 14 17 14 9 7 9 9 11 11 10 11 12 11 10 7 4 8 5 4
21 24 24 20 21 24 26 30 30 28 27 24 26 24 21 19 17 15 16 15 14 13 14 16 19 20 18 14 12 13 12 12 10 10 10 10 10 9 10 8 5 3 8
20 21 26 28 23 25 29 29 30 29 28 27 26 26 23 21 19 19 19 18 15 14 13 17 23 23 22 19 16 13 10 8 6 5 6 7 8 8 8 7 7 7 8
21 19 20 25 24 22 23 25 29 29 30 29 25 24 23 22 21 21 20 18 17 15 16 18 24 26 25 23 20 17 12 8 4 1 2 4 6 7 7 8 8 10 12
19 18 16 20 24 26 26 25 22 24 30 30 29 27 25 26 23 21 21 20 19 18 19 21 26 28 28 26 23 21 17 12 8 6 5 6 6 7 8 7 8 7 8
27 24 15 15 17 21 24 27 27 25 22 26 28 29 27 27 27 26 26 23 20 19 21 23 28 31 31 30 26 23 22 17 13 11 10 11 11 12 11 10 10 10 10
25 22 14 15 15 21 25 26 28 29 29 28 24 24 28 32 31 31 28 27 24 23 23 25 29 34 34 33 30 26 25 21 17 14 13 14 17 15 13 16 13 13 13
25 24 20 14 18 21 24 25 26 26 27 26 28 27 26 23 25 28 28 28 29 26 25 25 29 35 38 37 34 31 28 24 20 17 17 18 20 19 16 16 16 14 15
33 32 26 18 15 18 22 24 26 28 30 30 30 31 31 31 27 26 25 25 25 26 28 29 31 33 38 39 36 34 31 29 24 23 22 24 22 21 21 19 18 16 16
23 30 35 31 24 23 18 19 22 28 32 36 36 35 33 30 30 29 29 29 28 28 26 31 31 33 36 40 39 37 35 32 29 27 25 27 26 24 26 24 21 20 18
15 18 18 26 29 29 28 25 23 25 32 38 39 39 34 34 34 33 33 31 33 32 30 29 33 34 36 39 41 40 38 36 33 32 29 28 28 27 28 28 25 24 21
22 17 21 22 28 29 28 30 30 26 30 43 41 37 39 37 36 36 35 36 36 34 34 31 30 34 36 36 38 40 40 39 38 36 34 32 31 31 31 32 33 29 28
28 22 21 21 24 29 29 30 32 27 27 38 44 39 38 40 40 40 38 36 38 38 36 34 32 33 35 35 37 40 41 42 42 40 38 37 35 35 34 33 31 34 32
25 29 29 24 25 29 31 34 32 30 28 35 36 39 36 37 37 36 35 36 39 41 39 36 36 33 31 34 36 41 44 48 46 44 42 42 40 38 36 35 31 32 30
19 22 26 27 28 31 33 32 32 32 30 36 33 37 37 34 34 34 33 35 39 40 40 38 36 37 35 33 35 40 47 51 51 48 46 46 45 42 38 39 35 33 30
19 16 21 28 28 29 33 35 32 34 32 31 36 36 38 38 36 30 29 31 34 39 43 42 39 36 38 36 36 40 48 53 54 52 51 50 50 46 42 41 35 33 30
25 24 19 26 27 25 31 32 31 31 32 32 32 34 37 41 39 35 36 38 37 39 41 41 42 41 37 40 41 43 45 51 55 57 56 55 52 49 45 42 36 31 32
28 28 25 20 30 27 27 32 31 32 34 36 38 36 34 37 38 38 39 39 41 42 42 41 40 39 39 42 43 46 50 50 54 56 58 56 53 50 47 45 39 37 33
30 28 25 21 26 28 30 30 30 29 32 36 37 37 36 34 36 36 35 39 39 45 45 46 43 39 41 40 41 41 47 53 56 57 59 59 52 53 53 47 42 38 34
30 31 27 27 25 28 30 30 29 30 30 28 29 34 39 40 42 42 41 39 38 44 46 46 46 42 47 44 41 45 45 49 56 61 64 59 56 57 56 52 41 44 27
33 32 29 26 24 32 31 31 29 28 29 30 29 28 27 26 29 30 31 34 34 37 39 39 46 51 56 55 51 51 50 54 60 59 63 60 63 59 55 50 46 55 51
30 31 29 25 26 31 34 35 33 33 32 30 29 29 28 29 30 31 35 37 38 42 43 44 46 47 51 61 61 57 56 60 63 62 59 59 62 58 49 42 40 46 44

GFSMW_700_spd_027.txt.gz
Wind_Speed
22 24 24 27 28 27 27 27 27 26 25 24 21 19 16 15 13 13 12 10 8 7 7 7 8 4 6 5 5 3 3 2 2 9 6 4 6 7 8 5 2 2 10
24 25 19 28 29 29 27 28 28 27 25 24 22 20 17 16 14 13 12 12 11 9 9 9 8 6 6 6 5 7 2 3 3 11 1 4 8 5 1 1 3 3 3
27 20 17 24 29 30 27 28 29 27 26 25 24 22 20 18 16 15 14 12 12 11 10 11 10 8 8 8 5 4 6 1 3 3 12 5 4 5 12 5 2 5 5
28 26 18 17 26 27 27 28 29 28 26 26 24 21 18 17 15 14 13 13 13 12 11 12 11 10 10 6 4 3 7 4 6 7 8 7 8 5 6 11 11 5 4
28 30 18 15 19 27 28 28 29 30 28 26 25 22 22 18 16 15 14 14 13 13 12 12 13 12 12 10 6 6 5 8 10 10 8 7 8 5 4 4 9 12 8
27 30 26 23 17 25 28 30 31 31 30 26 26 23 22 21 20 18 16 14 13 12 11 12 13 16 15 13 9 9 11 10 9 9 7 7 9 9 8 5 9 6 11
27 30 31 26 20 20 24 25 29 30 28 27 27 24 24 24 21 19 17 16 15 14 13 13 14 17 19 18 13 13 12 9 7 7 6 6 6 5 5 4 2 3 5
24 30 32 28 24 20 20 26 28 31 31 29 27 24 24 26 23 20 18 17 15 14 17 14 16 21 23 23 19 15 13 9 6 4 3 1 3 3 4 5 6 8 11
25 30 32 29 21 24 20 18 23 26 27 26 25 24 22 27 25 21 19 20 19 18 17 17 18 21 24 26 24 20 16 13 10 7 5 4 6 6 8 9 9 7 2
27 28 31 28 21 23 22 18 20 19 21 25 25 24 24 25 24 23 23 22 19 18 20 18 20 21 25 27 27 25 22 18 14 13 10 10 11 10 10 11 11 10 9
27 29 29 28 23 25 28 24 23 21 22 20 21 25 26 26 27 26 25 25 23 22 23 20 21 21 25 28 29 28 26 23 19 18 17 15 15 14 13 12 13 14 13
27 27 28 26 29 27 28 28 27 26 24 24 22 21 21 26 29 31 30 28 28 27 24 25 23 24 25 29 31 30 30 27 23 21 21 21 18 17 18 17 13 14 16
26 27 28 25 26 29 27 26 27 26 28 29 27 26 25 25 24 25 29 30 32 33 30 29 29 26 26 28 31 32 33 32 29 26 25 24 23 20 21 21 21 17 17
24 27 27 26 26 25 24 27 28 29 32 33 32 30 27 25 25 25 24 26 26 28 27 26 26 28 28 28 28 30 33 34 33 29 29 28 27 24 22 26 22 24 22
20 26 28 25 28 29 24 18 19 21 20 23 32 35 32 31 32 31 28 29 29 27 27 29 28 26 29 30 31 32 35 36 35 35 34 34 32 29 27 28 27 26 24
14 14 15 21 31 35 31 28 23 22 21 23 23 29 39 37 35 33 31 32 32 30 31 31 29 29 28 28 28 30 34 37 40 41 40 39 39 36 31 33 32 30 28
12 15 17 15 24 29 32 32 30 27 28 27 27 28 38 40 41 37 34 33 34 35 34 35 35 34 30 29 27 28 33 37 40 42 43 43 43 40 36 36 36 34 33
22 20 20 19 20 22 20 28 33 36 33 32 29 28 34 43 41 40 39 38 37 37 38 38 38 37 32 30 29 27 31 36 41 44 44 45 46 47 43 39 40 39 38
16 18 19 22 24 27 27 29 34 37 35 32 31 27 34 40 43 40 41 41 42 42 42 41 40 39 34 30 32 32 34 37 41 45 47 49 49 50 50 44 45 43 42
17 18 20 22 24 34 32 33 36 36 34 31 33 30 32 36 39 41 40 42 39 38 41 41 40 40 37 38 34 36 39 39 41 44 48 51 52 52 54 51 48 49 45
28 28 27 26 28 28 35 35 35 38 31 35 36 32 27 35 36 41 42 41 41 43 43 42 41 42 40 37 38 38 43 44 44 45 46 51 50 52 55 55 53 53 49
32 29 27 28 26 23 31 31 29 30 33 34 32 33 30 32 38 39 43 45 44 41 40 41 42 46 46 42 39 39 45 46 49 50 50 53 53 53 54 57 56 53 53
26 32 31 31 31 27 29 32 29 28 32 32 27 28 31 32 34 36 38 41 41 39 35 38 39 40 47 49 45 44 44 51 53 51 55 58 58 57 58 60 56 55 54
21 30 33 33 33 30 26 34 32 30 31 31 28 24 27 30 32 34 36 37 38 39 40 38 36 37 43 48 49 49 47 49 55 57 59 63 65 63 59 66 56 55 55
26 25 33 35 31 31 26 30 32 32 31 28 30 31 28 28 29 29 31 33 34 33 32 33 32 31 31 34 43 50 56 53 54 61 67 68 67 68 65 69 63 57 53
28 26 27 33 31 32 29 26 33 33 31 29 28 29 28 29 28 28 28 29 29 30 29 30 33 35 37 35 40 43 46 48 52 59 64 61 64 76 70 72 73 63 63

GFSMW_700_spd_030.txt.gz
Wind_Speed
27 28 27 29 29 29 24 23 23 22 21 21 19 17 14 12 11 10 11 6 7 5 5 4 6 8 7 5 7 7 6 4 4 7 14 15 11 11 10 1 7 1 3
28 31 25 31 32 29 24 24 25 24 21 21 19 18 16 14 12 11 11 8 8 6 6 5 6 5 6 6 7 10 3 6 4 11 4 8 11 11 7 9 4 4 2
31 32 24 27 28 29 23 22 26 24 22 22 21 21 19 16 14 13 11 8 7 8 9 8 8 7 6 5 5 5 4 7 6 4 8 3 2 2 8 10 11 8 8
29 32 29 23 21 25 22 21 25 25 24 23 22 20 17 15 12 12 11 8 8 8 9 10 11 8 6 4 2 1 4 5 8 6 7 7 3 4 3 10 12 10 9
29 33 31 22 17 21 21 21 24 27 27 27 24 21 19 17 15 13 12 11 11 10 10 10 11 10 9 5 2 3 2 5 8 9 8 6 4 2 4 7 14 11 14
30 31 31 26 23 23 24 25 26 29 29 28 25 23 21 19 17 15 14 12 9 10 9 9 9 11 11 8 5 6 7 8 5 6 9 8 7 7 4 6 10 12 13
30 32 32 30 26 21 22 24 25 28 29 27 26 23 22 22 20 18 16 13 11 8 9 9 9 11 12 12 9 9 11 8 6 5 5 5 6 6 5 2 2 7 11
32 33 34 33 24 23 16 22 25 27 29 28 28 26 24 24 22 20 17 15 12 11 11 9 10 12 14 15 15 13 13 9 7 5 3 0 4 4 4 4 6 3 7
33 32 32 33 24 27 20 14 20 26 30 30 28 27 23 22 23 22 20 18 16 14 14 10 11 12 13 17 19 18 15 12 9 8 7 5 3 5 6 6 7 7 7
35 32 33 32 22 21 23 17 15 22 24 26 26 25 22 23 24 25 24 20 17 15 17 13 12 14 13 16 21 22 20 17 14 12 11 11 10 8 8 8 8 8 8
37 33 31 34 22 22 26 22 18 17 22 25 24 25 26 24 23 26 25 22 19 17 19 17 13 15 16 17 20 22 24 22 18 17 16 14 15 13 12 10 11 11 9
35 32 30 33 34 24 26 26 24 21 18 19 20 23 25 25 25 25 23 22 21 20 18 22 18 17 17 18 20 22 25 25 23 21 21 18 16 17 18 16 13 15 14
34 31 29 30 34 25 23 25 25 23 24 24 23 23 23 24 25 26 26 25 25 24 24 24 26 23 22 21 21 22 25 28 27 26 27 27 22 21 21 21 21 18 19
31 32 28 32 32 31 25 25 25 29 29 27 27 27 26 25 24 24 24 25 24 25 25 26 25 24 20 24 23 23 24 27 30 30 31 31 31 28 24 25 24 26 23
31 32 27 33 31 28 26 27 26 28 31 31 28 27 26 27 27 27 26 25 25 22 22 24 23 21 22 20 21 22 24 25 26 31 34 33 33 31 28 28 27 28 30
21 24 30 27 29 33 27 26 23 23 27 27 25 25 32 31 31 29 29 29 27 26 25 24 25 24 23 22 21 20 21 25 28 29 33 36 35 33 33 32 32 33 33
17 16 20 32 33 31 32 32 25 21 22 21 20 21 21 23 30 37 34 32 30 30 28 26 27 26 24 22 22 23 24 24 27 30 32 36 37 37 37 37 37 38 38
11 11 13 18 28 36 36 36 34 31 29 27 25 25 24 22 24 32 38 37 34 33 32 30 29 28 27 27 26 27 29 30 28 31 33 37 38 40 41 41 42 41 44
16 16 16 19 18 19 20 18 22 29 31 32 29 28 29 27 25 27 33 36 36 36 36 35 34 33 31 33 35 36 37 35 33 33 35 37 40 42 44 45 45 45 46
22 21 21 23 23 25 28 27 27 35 37 36 34 32 32 31 29 26 30 37 38 36 37 38 40 38 36 38 39 42 45 44 40 40 39 39 41 42 44 47 47 49 47
24 26 25 27 31 31 34 42 37 35 35 31 31 32 33 33 32 30 31 32 40 41 39 41 43 43 41 38 40 43 46 45 48 49 46 46 46 47 47 48 49 49 48
24 28 30 29 31 34 36 40 39 38 37 34 33 33 32 34 36 34 33 34 35 42 44 43 42 42 41 43 43 43 47 48 51 51 53 55 53 51 51 53 53 52 53
20 27 32 34 33 33 30 31 31 34 35 34 33 31 33 33 34 36 35 34 35 39 43 42 43 44 44 42 43 45 46 49 52 53 52 57 61 59 58 57 56 57 59
25 19 19 26 35 33 30 30 30 33 35 35 31 30 32 29 29 32 33 31 34 38 39 41 41 41 40 40 40 39 38 38 44 50 52 56 59 62 65 65 63 62 63
18 14 16 18 27 31 31 31 28 27 34 36 33 29 30 28 26 28 31 31 33 36 37 38 37 37 38 37 37 33 33 32 34 38 41 47 51 54 55 60 66 68 70
11 13 15 22 22 24 30 31 29 28 27 33 33 31 30 30 29 28 27 27 28 29 28 26 27 28 30 28 30 31 32 37 43 46 50 54 55 56 58 59 60 67 74

GFSMW_700_spd_033.txt.gz
Wind_Speed
31 32 29 28 28 27 23 20 19 22 23 21 20 18 15 15 12 9 6 6 5 5 4 3 0 1 5 6 7 8 2 3 5 13 15 12 13 11 13 15 13 11 12
29 30 33 31 30 26 22 20 20 20 22 20 18 17 15 14 12 10 7 7 7 6 5 4 3 1 4 6 8 8 6 6 6 8 13 8 11 14 14 14 8 10 10
28 28 32 27 26 23 21 20 21 19 21 20 20 20 20 18 16 12 7 8 7 7 6 6 5 1 2 5 6 8 8 5 8 9 8 10 7 10 7 9 9 13 10
35 25 25 30 21 17 16 19 22 21 21 22 22 20 16 14 11 10 8 8 8 8 7 7 6 3 0 3 4 7 8 5 7 9 11 10 13 11 7 12 12 13 12
37 30 24 23 23 18 19 18 20 23 22 24 22 20 18 16 15 13 11 10 10 9 8 8 7 6 4 3 3 5 7 7 6 8 12 11 12 11 10 10 11 14 15
20 29 23 22 25 19 19 23 24 24 25 25 23 22 20 18 17 15 13 11 10 8 6 6 6 7 4 5 5 5 7 8 6 5 8 10 10 8 8 9 9 10 14
22 22 27 25 26 25 17 21 25 26 26 26 24 22 21 21 17 15 13 11 10 8 6 5 5 6 6 6 8 8 10 8 7 7 6 6 7 7 8 9 9 10 11
31 26 18 28 22 24 19 15 25 24 25 26 25 23 23 23 20 18 14 11 11 9 8 7 5 7 7 6 10 10 11 8 7 7 6 5 4 7 8 8 9 11 11
34 34 26 17 19 24 18 10 22 26 27 26 27 25 24 23 19 16 17 15 13 10 9 9 7 7 6 7 9 12 12 10 9 8 6 3 1 4 6 7 9 9 10
39 38 30 21 18 19 14 12 15 26 27 27 27 26 22 21 20 20 20 17 14 12 12 10 9 8 7 8 9 15 16 13 12 11 10 7 4 4 4 6 8 9 10
48 36 33 28 17 17 18 16 15 24 28 27 24 26 25 24 23 22 20 20 17 15 14 9 8 7 9 9 10 12 17 18 17 16 16 13 13 9 9 8 8 9 11
47 40 35 29 20 24 20 21 17 18 25 25 26 27 27 25 24 23 20 20 18 16 16 15 12 10 10 11 10 11 15 19 20 19 20 18 19 17 15 13 11 12 13
46 42 37 30 19 25 20 24 21 20 20 24 25 26 26 26 25 23 21 21 19 18 18 20 18 13 13 15 16 14 14 16 20 22 23 22 22 21 20 20 17 16 17
38 42 38 31 22 25 21 25 27 25 25 24 23 22 23 23 23 22 22 21 20 20 21 21 19 17 14 15 18 19 17 17 19 21 23 25 26 24 23 25 24 23 22
27 38 37 32 26 19 25 25 24 29 28 28 26 23 21 21 21 22 23 22 22 22 22 22 23 20 18 15 15 17 18 18 20 22 23 24 25 25 25 27 28 28 28
34 30 36 31 26 20 18 25 19 21 24 30 28 27 26 25 24 23 22 23 24 23 23 23 21 21 18 16 15 16 17 17 19 21 25 26 26 26 28 29 31 32 34
31 32 30 38 36 28 25 22 21 16 19 24 25 26 29 30 27 27 28 28 27 27 26 24 23 22 20 18 17 19 21 21 21 22 23 26 30 30 29 30 34 35 37
30 29 27 25 35 40 40 33 26 22 18 17 20 24 24 23 22 23 27 33 34 32 30 29 28 26 23 25 25 25 26 27 28 28 27 28 29 32 34 34 36 37 38
30 29 26 22 24 27 30 30 33 28 24 24 23 23 23 22 21 20 19 22 28 35 36 33 32 30 28 28 30 34 36 34 33 34 35 35 35 34 35 38 40 40 42
30 30 27 23 22 22 21 18 30 33 35 30 29 28 27 26 25 24 22 20 19 25 33 34 33 33 32 32 33 35 38 40 41 42 40 39 39 41 43 43 44 44 43
27 26 33 30 28 25 24 24 26 27 28 26 26 28 31 31 31 29 28 27 25 24 29 33 34 32 34 36 37 38 41 42 43 42 42 42 43 45 46 48 49 45 46
25 26 27 28 29 32 29 30 32 33 34 33 36 33 31 33 33 33 32 33 32 30 29 32 34 37 37 38 39 40 40 41 44 43 44 45 46 47 49 51 51 52 52
26 25 23 29 31 35 39 38 39 37 35 38 39 36 34 31 33 34 34 34 34 33 31 33 34 35 39 41 41 41 40 43 45 45 47 49 48 48 48 49 50 52 55
25 26 23 25 29 35 37 39 40 44 46 46 44 40 35 32 32 34 35 34 33 33 34 33 37 37 39 41 41 41 41 42 43 43 40 34 29 30 34 35 36 40 43
25 25 24 22 19 21 30 31 30 30 29 27 32 35 34 32 30 30 32 31 31 32 31 30 32 34 35 38 37 37 36 34 29 30 30 31 35 37 39 43 47 49 51
26 20 21 19 14 15 16 22 26 26 26 26 24 27 31 34 32 30 33 30 29 31 31 31 32 32 31 31 32 29 26 26 26 28 30 35 39 44 48 51 55 57 57

GFSMW_700_spd_036.txt.gz
Wind_Speed
19 20 18 16 18 18 20 22 24 22 22 22 22 20 16 14 11 8 8 7 6 5 5 4 3 3 5 7 7 7 4 8 13 13 12 13 9 16 15 14 13 12 10
18 24 25 22 24 18 19 21 21 21 22 21 20 18 16 14 12 11 11 9 8 7 5 5 4 3 5 5 7 8 6 7 6 6 11 13 11 11 14 13 10 8 9
18 21 27 25 25 23 20 20 21 21 24 22 22 22 22 22 18 13 11 11 11 10 7 5 4 4 3 6 8 7 8 8 9 10 8 8 11 14 14 13 11 12 10
24 20 24 26 24 25 21 19 21 23 25 26 25 25 21 17 13 11 11 13 12 11 9 7 5 5 4 6 8 7 8 8 11 12 11 10 10 13 12 12 12 14 13
20 24 26 22 15 23 26 22 22 25 26 28 27 25 23 18 17 16 16 16 13 11 9 7 6 6 5 6 8 7 8 9 9 10 11 11 10 10 9 9 13 15 16
16 23 24 21 24 19 23 26 27 27 27 29 29 26 24 22 21 20 18 16 13 11 9 7 5 7 8 7 8 9 9 9 10 10 7 8 9 8 8 9 10 12 13
28 17 25 28 27 25 22 25 28 29 28 30 30 27 24 23 21 19 17 15 13 9 9 8 7 6 10 10 9 9 11 9 10 10 9 7 7 9 10 11 10 10 10
27 22 22 21 22 24 25 24 29 30 30 29 28 27 26 25 23 21 19 15 13 12 12 11 9 8 9 12 13 12 13 10 10 9 8 8 8 7 8 10 11 12 11
34 30 23 20 23 19 21 25 23 30 30 29 29 28 26 27 24 21 19 18 16 15 14 10 9 9 8 12 15 15 14 13 11 11 9 6 5 5 6 8 9 9 10
37 31 30 21 16 17 16 18 20 29 29 30 30 28 26 25 24 24 22 19 18 17 16 12 10 9 9 9 13 17 17 16 13 11 10 8 4 2 1 3 5 7 8
36 33 33 26 19 19 21 18 21 25 32 32 31 30 27 27 27 24 22 20 19 19 18 15 13 11 9 7 8 12 17 16 16 14 12 11 10 7 5 5 6 5 7
36 31 36 31 27 24 20 19 21 23 30 29 29 29 28 29 29 26 22 21 21 20 17 16 13 11 10 9 6 7 11 16 17 18 17 15 15 14 13 11 9 10 11
41 39 42 37 34 26 21 19 21 22 25 28 30 31 31 30 28 26 24 22 21 22 20 17 13 13 11 10 9 8 9 10 14 18 20 20 21 19 19 18 17 16 17
32 44 40 40 38 26 23 16 19 22 23 28 28 29 29 27 25 24 24 24 22 22 22 19 16 14 14 14 13 13 13 13 14 15 18 21 24 24 24 25 24 24 24
31 39 42 41 39 24 28 18 19 20 22 24 25 25 24 24 24 23 23 23 24 22 21 20 18 17 16 15 15 14 15 16 16 17 18 19 21 23 26 28 29 30 30
36 34 36 40 40 27 27 24 21 21 24 23 24 23 22 21 21 22 22 23 23 22 23 22 20 18 18 16 15 15 15 16 17 17 16 17 19 20 22 25 27 30 34
33 34 37 37 38 29 22 28 24 17 21 24 24 23 23 22 21 20 22 22 22 22 23 23 23 22 21 20 19 17 17 19 19 20 21 21 22 21 21 22 25 27 29
34 36 35 35 38 31 26 21 23 16 14 19 22 25 28 27 26 26 26 26 25 26 26 26 25 25 25 25 24 23 24 25 24 24 25 26 26 27 29 30 32 32 33
32 35 38 40 39 36 30 26 24 23 22 20 20 21 22 24 27 27 26 26 29 31 32 33 32 31 30 31 31 32 32 31 29 28 27 28 30 32 34 37 39 40 39
35 33 31 35 40 46 43 39 34 32 26 25 21 18 19 19 22 23 23 21 21 21 22 29 35 38 38 37 35 37 38 35 33 33 29 30 31 34 36 38 40 41 39
35 33 32 32 32 34 35 37 32 30 30 30 27 24 22 25 26 24 23 23 23 22 22 22 26 33 37 40 41 41 40 36 36 35 34 34 36 37 39 41 41 42 43
32 31 29 28 29 31 30 29 27 29 32 32 32 32 33 31 30 29 29 29 28 27 26 26 25 27 32 37 39 41 39 38 38 36 35 36 38 41 41 39 39 35 33
31 28 26 27 29 31 29 27 29 30 30 30 31 32 33 32 30 30 30 33 33 33 32 32 31 30 32 36 37 38 38 39 39 38 39 40 41 40 38 35 27 27 30
27 26 24 23 24 28 35 34 31 30 31 32 30 30 32 34 34 35 36 35 33 34 35 35 35 35 36 36 36 36 36 37 37 38 39 37 36 29 24 26 27 31 36
29 27 26 26 28 29 34 38 39 38 38 38 37 36 36 38 41 44 41 36 33 34 34 34 34 34 35 34 34 34 35 36 34 32 30 28 27 26 27 31 33 37 42
26 26 25 25 25 22 27 33 38 41 43 43 43 40 35 33 36 38 36 36 33 30 30 30 31 31 31 29 29 30 32 29 27 29 28 26 27 29 32 36 40 43 48

GFSMW_700_spd_042.txt.gz
Wind_Speed
22 25 28 31 29 29 30 30 31 30 28 25 22 19 15 13 15 15 12 9 7 6 6 5 4 3 4 3 2 4 6 7 8 10 11 11 10 9 9 8 8 8 6
27 28 30 33 32 31 31 33 32 31 28 26 22 19 16 15 15 17 13 9 7 7 6 5 4 3 2 4 4 5 6 8 10 10 8 9 7 7 7 7 5 6 7
26 28 30 32 34 33 33 33 33 33 30 27 25 22 21 21 20 17 12 9 7 7 6 5 4 4 2 3 4 6 6 8 8 12 11 10 9 7 7 8 5 3 5
26 27 27 30 29 30 31 31 31 33 30 29 27 25 22 20 18 16 14 11 9 9 9 7 6 5 5 5 5 6 8 12 10 9 11 11 10 10 9 8 8 6 6
24 25 20 20 24 28 30 30 32 33 31 29 28 26 24 21 18 16 15 14 12 11 11 11 10 8 7 6 6 8 10 12 12 11 9 9 10 10 10 10 9 8 7
30 22 23 22 21 27 31 31 31 32 33 31 30 29 26 21 19 17 16 14 13 12 11 11 12 11 8 8 8 9 10 11 11 10 9 8 8 9 9 10 11 10 9
36 30 28 27 22 24 31 33 33 34 34 33 32 30 27 24 21 19 16 15 14 12 10 11 12 11 12 12 11 10 11 12 11 10 9 9 8 9 11 11 10 10 10
33 37 31 27 26 23 26 32 34 35 36 34 33 30 28 25 22 21 18 15 14 13 14 13 13 14 15 15 14 13 13 12 11 10 9 8 10 10 9 9 10 9 9
35 32 36 31 30 29 27 32 33 34 35 33 31 31 28 26 25 22 21 18 17 17 16 15 15 16 16 17 17 16 15 15 13 11 10 9 8 9 9 8 7 6 6
30 35 34 33 32 34 30 28 30 32 32 33 32 30 28 27 25 25 24 22 20 20 19 17 16 15 16 18 19 18 18 18 17 15 13 11 9 7 5 5 4 3 3
22 28 34 35 32 35 35 31 28 30 33 32 32 31 30 29 27 26 25 24 24 23 21 19 18 16 16 17 18 20 20 20 19 19 16 15 13 10 8 6 4 3 3
17 28 30 34 35 32 33 32 33 32 29 29 30 31 31 31 30 28 26 26 25 24 23 21 19 17 16 16 16 20 22 21 21 19 18 17 17 15 14 12 10 10 12
21 19 31 33 36 34 30 32 34 33 31 29 30 32 32 33 32 30 28 28 27 26 25 24 21 19 17 17 16 16 18 20 22 22 21 19 20 18 18 18 18 18 19
30 29 29 33 33 36 32 29 31 31 31 31 31 33 34 34 32 31 30 29 28 27 26 24 22 21 20 18 17 16 15 14 16 19 21 23 23 22 22 23 23 23 24
30 31 31 32 36 37 36 30 27 30 30 31 31 33 33 33 33 33 32 30 29 26 25 25 24 24 23 22 19 16 15 14 14 15 16 17 18 20 22 24 24 26 28
35 36 38 35 41 32 36 30 28 29 29 25 26 27 31 31 31 32 31 30 27 26 26 25 24 24 25 23 21 20 18 17 17 17 17 17 18 19 21 22 23 25 27
42 44 43 40 37 31 34 34 29 27 31 27 25 23 26 28 27 28 29 29 27 27 25 23 23 22 23 23 22 20 20 20 19 19 18 19 19 20 20 21 22 25 26
47 52 49 48 36 30 32 34 31 27 29 23 18 18 20 23 23 25 25 25 25 24 23 22 20 19 20 20 20 20 22 22 20 20 20 21 21 22 24 26 29 29 32
23 34 44 41 31 31 33 35 33 27 27 26 20 17 17 18 19 20 20 19 19 20 19 20 20 21 21 20 21 23 25 24 22 23 24 25 26 28 30 31 32 32 33
31 36 36 35 34 37 36 36 33 30 27 20 19 21 22 20 18 18 17 17 19 20 21 22 22 23 24 25 27 29 30 31 29 29 30 31 32 33 34 35 34 33 32
30 37 39 35 29 34 36 37 33 33 28 24 21 21 19 19 18 16 16 19 21 23 23 24 25 26 27 28 29 31 35 35 35 35 35 35 36 36 37 36 37 36 34
34 32 33 33 36 31 33 40 34 31 28 28 25 21 20 19 19 17 18 20 22 22 23 23 24 24 24 24 26 28 31 33 36 38 38 39 39 39 40 39 37 36 35
26 24 23 29 33 34 32 39 37 34 33 32 30 28 25 23 24 22 23 23 21 23 24 24 23 21 21 23 26 27 29 30 31 32 33 36 38 40 40 38 36 34 32
23 23 23 26 28 31 33 41 42 41 40 38 34 32 30 30 29 29 27 21 24 26 27 24 23 22 23 24 24 26 28 28 29 30 31 32 33 34 32 32 31 28 30
27 25 23 22 21 22 24 27 34 37 36 36 35 34 33 32 33 33 32 29 27 29 31 28 26 27 28 28 26 29 28 29 28 28 28 29 29 28 28 26 25 28 28
28 30 29 27 25 24 22 22 22 23 25 27 29 31 34 36 36 37 37 33 29 29 30 32 32 34 35 32 31 31 29 28 29 29 28 27 25 26 24 24 25 27 27

GFSMW_700_spd_045.txt.gz
Wind_Speed
24 28 31 29 28 29 29 30 29 27 26 24 20 17 13 11 11 10 10 8 6 5 4 4 4 5 4 3 1 2 4 5 7 6 9 9 8 6 5 5 5 3 1
28 31 32 33 33 30 30 30 31 29 27 24 20 17 15 13 14 15 13 10 6 6 5 5 3 3 5 4 2 3 6 8 9 9 8 7 5 4 4 5 4 4 5
24 30 32 34 34 34 32 32 32 31 29 27 24 22 21 19 18 16 13 11 9 7 7 5 3 4 5 4 3 4 7 8 10 10 11 8 7 6 5 5 5 5 6
21 26 30 32 34 35 33 33 33 33 31 29 27 23 21 19 16 14 15 13 11 9 8 6 4 3 4 5 5 6 8 10 12 11 11 10 9 8 7 7 8 8 9
25 24 24 28 32 33 35 35 35 36 34 31 28 25 25 23 21 19 18 15 13 11 10 7 6 5 5 5 7 9 10 10 11 12 11 9 9 9 9 9 10 10 10
26 26 24 25 30 33 35 36 36 37 38 34 31 29 26 24 22 20 19 16 13 12 12 10 10 9 7 7 8 12 10 9 9 9 10 10 8 9 9 9 10 11 14
26 30 26 25 25 31 33 34 36 36 38 36 34 30 27 25 23 22 20 17 14 12 13 12 12 12 11 10 11 12 12 9 8 8 9 10 10 10 9 9 10 11 11
26 30 32 23 25 24 30 32 33 34 36 36 34 32 29 27 26 25 21 18 15 14 16 14 14 15 14 13 14 14 13 11 9 7 8 9 10 10 10 10 10 9 8
26 26 31 33 24 27 26 31 31 33 34 33 33 32 31 30 29 26 24 21 19 18 18 16 16 16 17 16 15 16 15 14 12 10 9 9 9 8 9 8 8 8 6
28 26 27 29 31 27 28 26 32 32 31 33 33 33 32 31 30 28 26 23 21 22 20 17 16 17 16 18 18 18 19 17 14 12 10 10 10 8 7 5 5 5 3
21 18 25 26 26 31 28 29 31 32 35 34 34 34 34 33 33 31 27 25 23 23 20 18 18 18 16 17 19 21 21 21 20 17 14 12 11 9 8 6 5 4 4
34 23 23 29 29 28 30 28 30 34 34 34 35 35 34 34 34 32 29 27 25 24 22 21 20 19 17 17 19 23 23 23 23 22 20 17 15 13 12 11 10 9 10
33 25 25 32 33 30 32 33 31 34 34 35 35 35 36 36 34 32 31 29 28 25 24 24 22 21 19 18 18 20 23 24 24 24 23 22 21 19 17 16 16 16 18
31 29 24 29 34 30 30 33 34 33 35 34 33 35 35 35 34 32 32 31 29 27 27 25 23 22 21 20 19 19 19 21 24 24 23 22 23 21 21 21 21 22 24
33 34 31 25 29 38 33 34 33 31 36 38 36 35 34 34 34 34 33 32 32 29 28 27 26 25 25 23 20 18 16 16 17 19 21 22 23 24 25 25 25 27 28
31 35 34 28 25 30 35 35 33 31 34 35 36 35 35 36 36 36 35 34 33 31 29 28 27 26 25 22 20 19 18 17 16 15 16 16 18 20 22 24 24 26 26
29 33 35 33 30 27 35 33 32 31 32 32 31 34 34 36 36 35 36 34 33 31 29 28 26 25 24 23 22 22 22 21 20 19 19 19 19 19 20 20 22 23 24
31 35 36 40 37 30 35 35 34 32 32 28 30 29 33 35 34 33 34 32 31 30 28 26 24 24 23 22 24 24 25 25 24 23 22 23 22 23 24 25 26 26 28
27 36 41 42 42 37 34 35 32 35 32 28 28 29 29 28 29 31 31 30 29 29 28 25 24 22 21 21 23 25 27 26 24 24 24 24 24 25 27 30 31 30 32
27 39 43 47 46 44 36 38 35 32 31 28 29 26 25 27 27 27 26 26 26 26 26 25 23 22 21 22 24 26 28 27 25 24 25 26 28 29 31 35 36 36 35
23 38 45 52 54 49 42 39 36 34 31 31 28 26 23 23 24 24 25 25 25 24 24 24 22 22 23 24 26 27 28 28 29 31 31 32 32 34 36 38 38 37 37
18 25 32 39 45 50 40 37 38 37 34 31 27 26 27 27 26 26 26 26 25 25 24 24 24 25 27 28 28 28 27 27 28 28 28 29 30 34 36 38 38 39 39
17 24 28 34 42 40 36 34 41 40 39 33 30 29 30 29 28 27 27 25 25 26 26 27 28 27 25 23 23 24 24 26 27 28 28 30 31 31 32 33 35 36 36
22 25 29 32 32 31 30 31 41 38 41 37 34 34 33 32 32 30 28 27 23 23 23 21 22 23 22 23 24 23 24 26 27 27 29 31 31 32 33 33 33 33 27
20 24 27 27 28 29 34 39 41 40 33 39 38 38 35 34 33 30 28 28 25 22 24 24 25 24 24 25 25 25 25 27 29 30 30 31 33 33 32 31 31 31 31
21 22 25 25 25 27 29 32 38 46 47 43 42 42 39 35 34 29 27 31 33 34 35 30 28 26 28 28 29 31 33 32 32 31 30 30 32 31 29 28 28 26 26